Location: Hylvaty SDH
(49.9612°N, 16.4057°E)
Time: 20:29:52
(UTC+01:00)

Vanguard 1 Rocket - Pass Details

Date: 08 October 2020
Orbit: 656 x 4221 km, 34.3° (Epoch: 30 October)

Event Time Altitude Azimuth Distance (km) Brightness Sun altitude
Rises 00:31:53 0° 269° (W) 7,146 12.0 -45.9°
Reaches altitude 10° 00:43:05 10° 241° (WSW) 6,933 11.6 -46.0°
Enters shadow 00:44:07 10° 239° (WSW) 6,951 11.6 -46.0°
Maximum altitude 00:48:10 11° 229° (SW) 7,073 - -46.0°
Drops below altitude 10° 00:53:33 10° 216° (SW) 7,340 - -45.9°
Sets 01:07:32 0° 189° (S) 8,376 - -45.7°
